Weather History for KDLS - December, 2013

Change the Weather History Date:

Monday, December 9, 2013

  Actual Average Record
Temperature  
Mean Temperature 17 °F -  
Max Temperature 33 °F 43 °F 61 °F (1979)
Min Temperature 1 °F 32 °F -7 °F (1972)
Degree Days  
Heating Degree Days 48    
Moisture  
Dew Point 9 °F    
Average Humidity 84    
Maximum Humidity 92    
Minimum Humidity 74    
Precipitation  
Precipitation 0.00 in - - ()
Sea Level Pressure  
Sea Level Pressure 30.55 in    
Wind  
Wind Speed 1 mph (East)    
Max Wind Speed 8 mph    
Max Gust Speed -    
Visibility 8 miles    
Events Fog    
Averages and records for this station are not official NWS values.
T = Trace of Precipitation, MM = Missing Value Source: NWS Daily Summary

Daily Weather History Graph

Daily Weather History Graph

Search for Another Location

Airport or City:

Trip Planner

Search our weather history database for the weather conditions in past years. The results will help you decide how hot, cold, wet, or windy it might be!

Date:

Astronomy

Dec. 09, 2013 Rise Set
Actual Time 7:33 AM PST 4:20 PM PST
Civil Twilight 6:59 AM PST 4:54 PM PST
Nautical Twilight 6:22 AM PST 5:32 PM PST
Astronomical Twilight 5:45 AM PST 6:08 PM PST
Moon 12:11 PM PST (12/9) No Moon Set
Length of Visible Light 9h 55m
Length of Day
8h 47m
First Quarter, 52% of the Moon is Illuminated
Dec 9
First Quarter
Dec 17
Full
Dec 25
Last Quarter
Jan 1
New
Jan 7
First Quarter

Hourly Weather History & Observations

Time (PST) Temp. Windchill Dew Point Humidity Pressure Visibility Wind Dir Wind Speed Gust Speed Precip Events Conditions
12:53 AM 5.0 °F - 1.0 °F 84% 30.67 in 10.0 mi Calm Calm - N/A   Clear
1:53 AM 3.0 °F - -0.0 °F 87% 30.65 in 10.0 mi Calm Calm - N/A   Clear
2:53 AM 5.0 °F - 3.0 °F 92% 30.63 in 9.0 mi Calm Calm - N/A   Partly Cloudy
3:08 AM 5.0 °F -2.1 °F 1.9 °F 87% 30.60 in 9.0 mi East 3.5 mph - N/A   Mostly Cloudy
3:37 AM 3.9 °F -3.4 °F 1.9 °F 91% 30.61 in 10.0 mi NNW 3.5 mph - N/A   Scattered Clouds
3:53 AM 3.9 °F - -0.0 °F 84% 30.62 in 10.0 mi Calm Calm - N/A   Clear
4:44 AM 6.1 °F - 3.0 °F 87% 30.59 in 1.8 mi Calm Calm - N/A   Clear
4:53 AM 6.1 °F - 3.0 °F 87% 30.61 in 1.0 mi Calm Calm - N/A   Clear
4:57 AM 5.0 °F - 3.0 °F 92% 30.58 in 3.0 mi Calm Calm - N/A   Clear
5:00 AM 5.0 °F - 1.9 °F 87% 30.58 in 1.5 mi Calm Calm - N/A   Clear
5:08 AM 1.9 °F - -0.0 °F 91% 30.58 in 0.5 mi Calm Calm - N/A Fog Light Freezing Fog
5:26 AM 5.0 °F - 1.9 °F 87% 30.58 in 2.5 mi Calm Calm - N/A   Clear
5:33 AM 5.0 °F - 1.9 °F 87% 30.57 in 10.0 mi Calm Calm - N/A   Clear
5:53 AM 6.1 °F - 1.9 °F 83% 30.59 in 10.0 mi Calm Calm - N/A   Clear
6:18 AM 5.0 °F -4.1 °F 1.0 °F 84% 30.57 in 10.0 mi WSW 4.6 mph - N/A   Scattered Clouds
6:34 AM 5.0 °F -8.1 °F -0.0 °F 80% 30.58 in 10.0 mi SW 8.1 mph - N/A   Mostly Cloudy
6:53 AM 3.9 °F -6.9 °F 1.0 °F 88% 30.59 in 10.0 mi South 5.8 mph - N/A   Scattered Clouds
7:06 AM 3.9 °F -5.3 °F -0.0 °F 84% 30.57 in 10.0 mi ENE 4.6 mph - N/A   Mostly Cloudy
7:18 AM 3.0 °F -4.4 °F -0.9 °F 84% 30.57 in 10.0 mi NNE 3.5 mph - N/A   Scattered Clouds
7:53 AM 5.0 °F -2.1 °F 1.0 °F 84% 30.59 in 9.0 mi NE 3.5 mph - N/A   Clear
8:53 AM 8.1 °F - 5.0 °F 87% 30.60 in 10.0 mi Calm Calm - N/A   Overcast
9:53 AM 12.0 °F - 10.0 °F 92% 30.60 in 10.0 mi Calm Calm - N/A   Overcast
10:53 AM 15.1 °F 9.4 °F 10.9 °F 84% 30.58 in 10.0 mi North 3.5 mph - N/A   Overcast
11:53 AM 16.0 °F - 10.9 °F 81% 30.55 in 10.0 mi Calm Calm - N/A   Mostly Cloudy
12:53 PM 19.0 °F - 12.0 °F 74% 30.52 in 10.0 mi Calm Calm - N/A   Overcast
1:53 PM 19.9 °F 14.9 °F 14.0 °F 78% 30.51 in 10.0 mi Variable 3.5 mph - N/A   Overcast
2:53 PM 21.9 °F - 16.0 °F 78% 30.51 in 10.0 mi Calm Calm - N/A   Overcast
3:53 PM 23.0 °F - 17.1 °F 78% 30.49 in 10.0 mi Calm Calm - N/A   Overcast
4:53 PM 24.1 °F 18.2 °F 19.0 °F 81% 30.49 in 10.0 mi ESE 4.6 mph - N/A   Overcast
5:53 PM 28.9 °F 23.9 °F 23.0 °F 78% 30.47 in 10.0 mi South 4.6 mph - N/A   Overcast
6:53 PM 30.0 °F - 24.1 °F 79% 30.46 in 10.0 mi Calm Calm - N/A   Overcast
7:53 PM 30.0 °F 25.2 °F 26.1 °F 85% 30.45 in 10.0 mi ESE 4.6 mph - N/A   Overcast
8:53 PM 30.9 °F 24.3 °F 26.1 °F 82% 30.44 in 10.0 mi East 6.9 mph - N/A   Overcast
9:53 PM 33.1 °F - 26.1 °F 75% 30.44 in 10.0 mi Calm Calm - N/A   Overcast
10:53 PM 32.0 °F 27.5 °F 25.0 °F 75% 30.43 in 10.0 mi SE 4.6 mph - N/A   Partly Cloudy
11:53 PM 32.0 °F - 25.0 °F 75% 30.44 in 10.0 mi Calm Calm - N/A   Partly Cloudy